{"data":{"norad_id":40718,"epoch":"2026-09-20T04:55:23.942208Z","epoch_age_seconds":39939,"freshness":"FRESH","line1":"1 40718U 15032D   26263.20513822  .00000832  00000+0  10640-3 0  9999","line2":"2 40718  97.6573  77.3496 0014248 348.8045  11.2850 14.83833057603431","mean_motion":14.83833057,"eccentricity":0.0014248,"inclination_deg":97.6573,"raan_deg":77.3496,"arg_perigee_deg":348.8045,"mean_anomaly_deg":11.285,"bstar":0.0001064,"rev_number":60343,"period_min":97.045957643738,"perigee_km":607.28406056846,"apogee_km":627.21811846835,"semimajor_km":6995.3880895184,"source":"CELESTRAK","updated_at":"2026-09-20T09:00:33.964354Z"}}